Showing default

YUNHAI 1, 41857

Orbit data source: Space-Track

YUNHAI 1, 41857 is a payload satellite owned by SAST (CN) in SSO that was launched on Fri, 11 Nov 2016 UTC via a CHANG ZHENG 2D launch vehicle from the Jiuquan Satellite Launch Center, China (JSC). Payload-class satellites include a variety of spacecraft equipped with specific instruments for various scientific and technological missions. These include communications satellites like Starlink; space stations such as the ISS; scientific satellites like the Hubble; Earth observation satellites from companies like Planet Labs, Umbra, and HawkEye 360; GPS; miniature CubeSats for education and research; and military/defense satellites.

Loading next visibility...
Identifier
41857, 2016-068A
Orbit
SSO
Last TLE update
8 hours ago
Origin
Manufacturer
SAST
Mission
Operational Defense Weather
Bus & Motor
YUNHAI-1, Unknown motor
Mass
~800 kg wet, ~800 kg dry
Launch date (UTC)
2016-11-11 (8 years ago)
Launch vehicle
CHANG ZHENG 2D
Launch site
Jiuquan Satellite Launch Center, China (JSC)
Object type
Payload
Rocket body
Debris
Shape & HBR
Box + 2 Pan, 4 m
Radar Cross Section
5.141 m², Large (>1 m²)

Expand to show TLE details & history

TLE from 8 hours ago
0 YUNHAI 1
1 41857U 16068A   25128.93942920  .00000456  00000-0  18120-3 0  9992
2 41857  98.5906 138.5351 0007235 112.2994 247.8958 14.33357848443948
Epoch: 2025-05-08T22:32Z
Definitive object data (Epoch: 2025-05-08T22:32:46.682Z)
Latitude
-0.00004°
Longitude
-66.66213°
Altitude
785.418 km
Speed
7.46 km/s
True Right ascension
09h 14m 08s
True Declination
0° 00' 00"
Sunlit
Object was in daylight at TLE epoch
Visualization TLE readout
Latitude
-21.48838°
Longitude
-62.92867°
Altitude
792.151 km
Speed
7.455 km/s
Apparent Right ascension
06h 53m 29s
Apparent Declination
-40° 50' 21"
Sunlit
Object is in daylight
Visualization observer readout
Local Sidereal Time
14:58:14
Azimuth
248.865° W
Elevation
-46.06°
Doppler factor
1
Orbital elements
Apogee altitude
782.841 km
Perigee altitude
772.487 km
Semi-major axis
7,155.801 km
Eccentricity
0.0007235
Inclination
98.5906°
RAAN
138.5351°
Arg. of periapsis
112.2994°
True anomaly
247.81901°
Mean anomaly
247.8958°
Eccentric anomaly
247.8574°
Mean motion
3.58555 °/min
BSTAR
0.0001812
Orbital period
100.4 mins
Loading maneuver chart data...
Loading SW <> Apogee altitude chart data...
Loading historical data...
Loading historical data...
Loading historical data...
Loading historical data...
Loading historical data...
Loading historical data...
Loading historical data...

YUNHAI 1 Visibility forecast

Observer location: undefined°, undefined°

Span
Click to sort rows by Start time (UTC) header in descending order
Start Az.
Max El. time (UTC)
Max El. Az.
Max El.
End time (UTC)
End Az.
8 mins2025-05-09 12:32:20.300Z41.349° NE2025-05-09 12:36:20.300Z94.297° ESE22.531°2025-05-09 12:40:20.300Z147.946° SSE
8 mins2025-05-09 14:12:20.300Z349.422° N2025-05-09 14:15:20.300Z301.26° NW31.098°2025-05-09 14:20:20.300Z224.575° SW
7 mins2025-05-09 23:49:20.300Z123.353° SE2025-05-09 23:52:20.300Z74.868° E29.132°2025-05-09 23:56:20.300Z10.031° NNE
6 mins2025-05-10 01:29:20.300Z222.054° SW2025-05-10 01:32:20.300Z273.633° WNW24.377°2025-05-10 01:35:20.300Z315.829° NNW
|